Location: Hancock Field Station
(44.9202°N, 120.4259°W)
Time: 06:09:09
(UTC-07:00)

Nadezhda 4 Rocket - Visible Passes

Search period start: 30 July 2014 00:00
Search period end: 09 August 2014 00:00
Orbit: 951 x 992 km, 82.9° (Epoch: 28 July)

Date Brightness Start Highest point End Pass type
(mag) Time Alt. Az. Time Alt. Az. Time Alt. Az.
30 Jul 6.6 02:35:30 10° E 02:36:46 11° ENE 02:38:02 10° ENE visible
30 Jul 4.3 04:14:40 10° S 04:20:50 72° E 04:27:06 10° NNE visible
31 Jul 6.2 02:56:08 10° SE 03:00:25 20° E 03:04:44 10° NE visible
31 Jul 4.0 04:38:50 10° SSW 04:45:01 69° W 04:51:19 10° N visible
01 Aug 5.4 03:18:44 10° SSE 03:24:13 34° E 03:29:46 10° NNE visible
01 Aug 4.6 05:03:34 10° SW 05:09:23 41° WNW 05:15:18 10° N visible
02 Aug 4.5 03:42:39 13° SSE 03:48:11 58° E 03:54:21 10° NNE visible
03 Aug 6.3 02:24:22 10° ESE 02:27:55 16° E 02:31:29 10° NE visible
03 Aug 4.0 04:07:08 16° S 04:12:19 84° W 04:18:40 10° N visible
04 Aug 5.6 02:47:00 12° SE 02:51:40 28° E 02:56:50 10° NNE visible
04 Aug 4.3 04:31:36 15° SSW 04:36:36 50° WNW 04:42:44 10° N visible
05 Aug 4.8 03:11:26 20° SSE 03:15:34 47° E 03:21:34 10° NNE visible
05 Aug 5.0 04:56:02 11° SW 05:01:05 30° WNW 05:06:33 10° N visible
06 Aug 6.4 01:52:59 10° E 01:55:27 13° ENE 01:57:55 10° NE visible
06 Aug 4.0 03:35:51 26° S 03:39:38 81° E 03:45:58 10° N visible
06 Aug 5.6 05:21:36 10° WSW 05:25:44 18° WNW 05:29:55 10° NNW visible
07 Aug 5.8 02:15:38 14° ESE 02:19:08 23° E 02:23:50 10° NE visible
07 Aug 4.1 04:00:14 26° SSW 04:03:52 61° WNW 04:10:08 10° N visible
08 Aug 5.1 02:40:00 25° SE 02:42:58 38° E 02:48:44 10° NNE visible
08 Aug 4.7 04:24:36 20° SW 04:28:15 36° WNW 04:34:03 10° N visible
